          19 12  04 28.70  +27 22.4   5.463  5.707     4.8 / 257  15.5  114  .91

          20 12  04 28.35  +27 21.3   5.471  5.697     4.6 / 256  15.5  129  .84

          21 12  04 28.01  +27 20.2   5.479  5.688     4.4 / 256  15.5  143  .74

          22 12  04 27.69  +27 19.1   5.487  5.678     4.2 / 256  15.5  157  .63

          23 12  04 27.38  +27 18.1   5.495  5.668     4.0 / 255  15.5  170  .52

          24 12  04 27.09  +27 17.0   5.504  5.659     3.8 / 255  15.5  172  .41

          25 12  04 26.81  +27 16.1   5.512  5.649     3.6 / 255  15.5  160  .31

          26 12  04 26.55  +27 15.1   5.520  5.639     3.4 / 254  15.5  147  .21

          27 12  04 26.30  +27 14.2   5.529  5.630     3.3 / 254  15.5  133  .13

          28 12  04 26.06  +27 13.3   5.537  5.620     3.1 / 254  15.5  120  .07

     Mar.  1 12  04 25.84  +27 12.4   5.545  5.610     2.9 / 253  15.5  108  .03

           2 12  04 25.64  +27 11.6   5.554  5.600     2.7 / 253  15.5   95  .01

           3 12  04 25.45  +27 10.8   5.562  5.591     2.5 / 252  15.5   83  .00

           4 12  04 25.27  +27 10.0   5.570  5.581     2.3 / 251  15.5   70  .02

           5 12  04 25.11  +27 09.3   5.578  5.571     2.1 / 250  15.5   58  .05

           6 12  04 24.96  +27 08.6   5.587  5.562     1.9 / 250  15.5   46  .11

           7 12  04 24.82  +27 07.9   5.595  5.552     1.7 / 248  15.4   35  .17

           8 12  04 24.70  +27 07.3   5.603  5.542     1.5 / 247  15.4   23  .25

           9 12  04 24.60  +27 06.7   5.611  5.532     1.4 / 245  15.4   12  .33

          10 12  04 24.50  +27 06.1   5.619  5.523     1.2 / 243  15.4    5  .42

          11 12  04 24.42  +27 05.6   5.627  5.513     1.0 / 240  15.4   14  .52

          12 12  04 24.36  +27 05.1   5.635  5.503      .9 / 237  15.4   26  .62

          13 12  04 24.30  +27 04.6   5.642  5.493      .7 / 231  15.4   39  .71

          14 12  04 24.26  +27 04.1   5.650  5.483      .5 / 222  15.4   52  .80

          15 12  04 24.24  +27 03.7   5.658  5.474      .4 / 208  15.4   66  .88

          16 12  04 24.22  +27 03.4   5.665  5.464      .3 / 184  15.4   80  .95

          17 12  04 24.22  +27 03.0   5.673  5.454      .3 / 155  15.4   94  .99

          18 12  04 24.23  +27 02.7   5.680  5.444      .4 / 131  15.4  109 1.00

          19 12  04 24.25  +27 02.5   5.687  5.434      .5 / 116  15.4  124  .98

          20 12  04 24.29  +27 02.2   5.694  5.424      .7 / 108  15.4  139  .94

          21 12  04 24.34  +27 02.0   5.701  5.415      .8 / 102  15.4  154  .87

          22 12  04 24.40  +27 01.9   5.708  5.405     1.0 /  98  15.4  168  .78

          23 12  04 24.47  +27 01.7   5.715  5.395     1.1 /  95  15.4  174  .67

          24 12  04 24.55  +27 01.6   5.722  5.385     1.3 /  93  15.4  162  .56

          25 12  04 24.65  +27 01.6   5.728  5.375     1.4 /  91  15.4  149  .45

          26 12  04 24.75  +27 01.5   5.734  5.365     1.6 /  90  15.4  136  .35

          27 12  04 24.87  +27 01.5   5.741  5.355     1.7 /  89  15.4  123  .25

          28 12  04 25.00  +27 01.5   5.747  5.345     1.9 /  88  15.4  110  .17

          29 12  04 25.14  +27 01.6   5.753  5.336     2.0 /  87  15.4   98  .10

          30 12  04 25.29  +27 01.7   5.758  5.326     2.2 /  87  15.4   86  .05

          31 12  04 25.45  +27 01.8   5.764  5.316     2.3 /  86  15.4   74  .02

     Apr.  1 12  04 25.63  +27 02.0   5.769  5.306     2.5 /  86  15.4   62  .00

NAKANO

         **** Don't distribute anyone except personal use only ****

                (C) Copyright 2003 OAA/ComputingSection

write mail from CFAD0::NAKANO on 2003-02-18 23:30:01(JST).

 

    C/2002 T7 (LINEAR)                                                    

Epoch 2004 Apr. 25.0 TT = JDT 2453120.5  

T 2004 Apr. 23.08284 TT                                 Nakano

q   0.6148806            (2000.0)            P               Q

z  -0.0008848      Peri.  157.72749     +0.43457862     -0.83752039

 +/-0.0000275      Node    94.86021     -0.86830521     -0.29197143

e   1.0005441      Incl.  160.58509     -0.23913905     -0.46185742

From 792 observations 2002 Oct. 12-2003 Jan. 28, mean residual 0".48.

   (1/a)org.= -0.000038, (1/a)fut.= -0.000678 (+/-0.000027), Q= 6.



NAKANO

         **** Don't distribute anyone except personal use only ****

                (C) Copyright 2003 OAA/ComputingSection

write mail from CFAD0::NAKANO on 2003-01-30 23:15:24(JST).

 



◎C/2002 T7の軌道と予報位置です



 2004年春に 2001 Q4とともに明るく見えるこの彗星の観測は,その後も順調に

行なわれ,1月の CCD全光度は15等級で観測されました.次の軌道は2002年10月

12日から2003年1月24日までに行なわれた 762個の観測から決定したものです.

彗星の原初軌道の軌道長半径の逆数は,(1/a)origin=-0.000070で,2002 Q4と同

様に太陽系外遠部から初めて太陽に近づいてきた彗星のようです.一般にこれら

の彗星は,近日点近くでの光度の増光が鈍いといわれています.2004年に予報ど

おりの明るさになるか,ちょっと気がかりです(天ガ3月号彗星ガイドより).



    C/2002 T7 (LINEAR)                                                    

Epoch 2004 Apr. 25.0 TT = JDT 2453120.5  

T 2004 Apr. 23.08020 TT                                 Nakano

q   0.6149730            (2000.0)            P               Q

z  -0.0009174      Peri.  157.72414     +0.43464796     -0.83749399

 +/-0.0000325      Node    94.86131     -0.86827661     -0.29204638

e   1.0005642      Incl.  160.58653     -0.23911687     -0.46185791

From 762 observations 2002 Oct. 12-2003 Jan. 24, mean residual 0".47.

   (1/a)org.= -0.000070, (1/a)fut.= -0.000710 (+/-0.000032), Q= 6.

 

Date/        TT  R.A.(2000) Decl.     Delta   r     Daily motion  Mag.  Moon Age

              h    h  m       。  ,                      ,  / PA 。  m1      。

2003 Jan. 25 12  04 42.42  +27 56.5   5.294  5.946     9.7 / 261  15.5  143  .48

          26 12  04 41.69  +27 55.0   5.299  5.936     9.5 / 261  15.5  157  .37

          27 12  04 40.98  +27 53.6   5.304  5.927     9.3 / 261  15.5  170  .27

          28 12  04 40.29  +27 52.1   5.309  5.917     9.2 / 261  15.5  172  .17

          29 12  04 39.61  +27 50.6   5.314  5.908     9.0 / 261  15.5  159  .10

          30 12  04 38.94  +27 49.1   5.320  5.898     8.8 / 260  15.5  146  .04

          31 12  04 38.28  +27 47.7   5.326  5.889     8.6 / 260  15.5  133  .01

     Feb.  1 12  04 37.65  +27 46.2   5.332  5.879     8.4 / 260  15.5  119  .00

           2 12  04 37.02  +27 44.8   5.338  5.870     8.2 / 260  15.5  106  .01

           3 12  04 36.41  +27 43.3   5.344  5.860     8.0 / 260  15.5   94  .05

           4 12  04 35.82  +27 41.9   5.351  5.851     7.8 / 260  15.5   81  .10

           5 12  04 35.24  +27 40.5   5.357  5.841     7.6 / 259  15.5   69  .16

           6 12  04 34.67  +27 39.1   5.364  5.832     7.4 / 259  15.5   57  .23

           7 12  04 34.12  +27 37.7   5.371  5.822     7.2 / 259  15.5   45  .32

           8 12  04 33.59  +27 36.3   5.378  5.812     7.0 / 259  15.5   33  .41

           9 12  04 33.07  +27 34.9   5.385  5.803     6.8 / 259  15.5   21  .50

          10 12  04 32.56  +27 33.6   5.393  5.793     6.6 / 258  15.5   10  .60

          11 12  04 32.07  +27 32.3   5.400  5.784     6.4 / 258  15.5    6  .69

          12 12  04 31.60  +27 31.0   5.408  5.774     6.2 / 258  15.5   17  .78

          13 12  04 31.14  +27 29.7   5.415  5.765     6.0 / 258  15.5   30  .86

          14 12  04 30.70  +27 28.4   5.423  5.755     5.8 / 258  15.5   43  .92

          15 12  04 30.27  +27 27.2   5.431  5.745     5.6 / 257  15.5   56  .97

          16 12  04 29.85  +27 25.9   5.439  5.736     5.4 / 257  15.5   70  .99

          17 12  04 29.46  +27 24.7   5.447  5.726     5.2 / 257  15.5   85  .99

          18 12  04 29.07  +27 23.6   5.455  5.717     5.0 / 257  15.5   99  .97

          19 12  04 28.70  +27 22.4   5.463  5.707     4.8 / 257  15.5  114  .91

          20 12  04 28.35  +27 21.3   5.471  5.697     4.6 / 256  15.5  129  .84

          21 12  04 28.01  +27 20.2   5.479  5.688     4.4 / 256  15.5  143  .74

          22 12  04 27.69  +27 19.1   5.487  5.678     4.2 / 256  15.5  157  .63

          23 12  04 27.38  +27 18.1   5.496  5.668     4.0 / 255  15.5  170  .52

          24 12  04 27.09  +27 17.0   5.504  5.659     3.8 / 255  15.5  172  .41

          25 12  04 26.81  +27 16.1   5.512  5.649     3.6 / 255  15.5  160  .31

          26 12  04 26.54  +27 15.1   5.520  5.639     3.5 / 254  15.5  147  .21

          27 12  04 26.29  +27 14.2   5.529  5.630     3.3 / 254  15.5  133  .13

          28 12  04 26.06  +27 13.3   5.537  5.620     3.1 / 254  15.5  120  .07

     Mar.  1 12  04 25.84  +27 12.4   5.545  5.610     2.9 / 253  15.5  108  .03

NAKANO

         **** Don't distribute anyone except personal use only ****

                (C) Copyright 2003 OAA/ComputingSection

write mail from CFAD0::NAKANO on 2003-01-26 05:08:58(JST).

 



   C/2002 T7 (LINEAR)                                                    

T 2004 Apr. 23.15788 TT                                 Nakano

q   0.6127581            (2000.0)            P               Q

                   Peri.  157.81032     +0.43290084     -0.83818939

                   Node    94.83446     -0.86898420     -0.29017603

e   1.0            Incl.  160.55510     -0.23971509     -0.46177529

From 561 observations 2002 Oct. 12-2003 Jan. 5.



NAKANO

         **** Don't distribute anyone except personal use only ****

                (C) Copyright 2003 OAA/ComputingSection

write mail from CFAD0::NAKANO on 2003-01-07 05:12:31(JST).

 

    C/2002 T7 (LINEAR) 

T 2004 Apr. 23.32541 TT                                 Nakano

q   0.6136792            (2000.0)            P               Q

                   Peri.  157.79183     +0.43331518     -0.83804198

                   Node    94.84229     -0.86880965     -0.29062653

e   1.0            Incl.  160.56515     -0.23959914     -0.46175952

From 378 observations 2002 Oct. 12-Dec. 15.



NAKANO

         **** Don't distribute anyone except personal use only ****

                (C) Copyright 2002 OAA/ComputingSection

write mail from CFAD0::NAKANO on 2002-12-16 23:29:08(JST).

 

